Change the Weather History Date:

Friday, May 11, 2012

  Actual Average Record
Temperature  
Mean Temperature 50 °F -  
Max Temperature 60 °F 62 °F 82 °F (2001)
Min Temperature 39 °F 33 °F 25 °F (1999)
Degree Days  
Heating Degree Days 16    
Moisture  
Dew Point 36 °F    
Average Humidity 67    
Maximum Humidity 93    
Minimum Humidity 34    
Precipitation  
Precipitation 0.07 in - - ()
Sea Level Pressure  
Sea Level Pressure 29.84 in    
Wind  
Wind Speed 6 mph (West)    
Max Wind Speed 16 mph    
Max Gust Speed 22 mph    
Visibility 10 miles    
Events Rain    
Averages and records for this station are not official NWS values.
T = Trace of Precipitation, MM = Missing Value Source: NWS Daily Summary

Daily Weather History Graph

Daily Weather History Graph

Search for Another Location

Airport or City:

Trip Planner

Search our weather history database for the weather conditions in past years. The results will help you decide how hot, cold, wet, or windy it might be!

Date:

Astronomy

May. 11, 2012 Rise Set
Actual Time 5:23 AM EDT 8:02 PM EDT
Civil Twilight 4:49 AM EDT 8:36 PM EDT
Nautical Twilight 4:08 AM EDT 9:18 PM EDT
Astronomical Twilight 3:20 AM EDT 10:06 PM EDT
Moon 12:38 AM EDT (5/11) 10:54 AM EDT (5/11)
Length of Visible Light 15h 46m
Length of Day
14h 39m
Waning Gibbous, 63% of the Moon is Illuminated
May 11
Waning Gibbous
May 12
Last Quarter
May 20
New
May 28
First Quarter
Jun 4
Full

Hourly Weather History & Observations

Time (EDT) Temp. Windchill Dew Point Humidity Pressure Visibility Wind Dir Wind Speed Gust Speed Precip Events Conditions
12:52 AM 44.1 °F 41.5 °F 42.1 °F 93% 29.64 in 9.0 mi SSW 4.6 mph - 0.02 in   Overcast
1:52 AM 44.1 °F 40.8 °F 41.0 °F 89% 29.65 in 10.0 mi SSW 5.8 mph - 0.00 in Rain Light Rain
2:52 AM 44.1 °F 41.5 °F 41.0 °F 89% 29.67 in 10.0 mi Variable 4.6 mph - 0.01 in   Overcast
3:52 AM 44.1 °F 41.5 °F 39.9 °F 85% 29.70 in 10.0 mi SW 4.6 mph - N/A   Overcast
4:52 AM 43.0 °F 40.3 °F 39.9 °F 89% 29.72 in 10.0 mi SW 4.6 mph - N/A   Overcast
5:52 AM 43.0 °F 40.3 °F 39.9 °F 89% 29.75 in 5.0 mi West 4.6 mph - 0.02 in Rain Light Rain
6:52 AM 42.1 °F 37.7 °F 39.0 °F 89% 29.78 in 10.0 mi West 6.9 mph - 0.01 in Rain Light Rain
7:18 AM 42.8 °F 37.0 °F 39.2 °F 87% 29.77 in 10.0 mi West 10.4 mph 16.1 mph 0.00 in   Overcast
7:42 AM 42.8 °F 38.0 °F 39.2 °F 87% 29.78 in 10.0 mi West 8.1 mph - 0.00 in   Overcast
7:52 AM 43.0 °F 39.5 °F 39.9 °F 89% 29.80 in 10.0 mi WSW 5.8 mph - 0.00 in   Overcast
8:52 AM 44.1 °F 39.5 °F 37.9 °F 79% 29.83 in 10.0 mi West 8.1 mph - 0.00 in Rain Light Rain
9:52 AM 45.0 °F 41.8 °F 37.9 °F 76% 29.85 in 10.0 mi WNW 5.8 mph - 0.00 in   Overcast
10:25 AM 44.6 °F - 37.4 °F 76% 29.84 in 10.0 mi Calm Calm - 0.00 in   Overcast
10:52 AM 48.0 °F - 37.9 °F 68% 29.86 in 10.0 mi West 5.8 mph - 0.01 in   Overcast
11:52 AM 51.1 °F - 35.1 °F 54% 29.85 in 10.0 mi West 11.5 mph 16.1 mph N/A   Mostly Cloudy
12:52 PM 53.1 °F - 36.0 °F 52% 29.86 in 10.0 mi WNW 13.8 mph 20.7 mph N/A   Mostly Cloudy
1:52 PM 57.0 °F - 34.0 °F 42% 29.85 in 10.0 mi WNW 9.2 mph 20.7 mph N/A   Scattered Clouds
2:52 PM 57.9 °F - 30.9 °F 36% 29.86 in 10.0 mi WNW 13.8 mph 21.9 mph N/A   Mostly Cloudy
3:52 PM 57.9 °F - 30.0 °F 35% 29.87 in 10.0 mi NW 16.1 mph 19.6 mph N/A   Scattered Clouds
4:52 PM 57.0 °F - 28.9 °F 34% 29.89 in 10.0 mi NNW 12.7 mph - N/A   Mostly Cloudy
5:52 PM 57.0 °F - 30.0 °F 36% 29.91 in 10.0 mi NW 9.2 mph - N/A   Overcast
6:52 PM 57.0 °F - 30.0 °F 36% 29.92 in 10.0 mi WNW 8.1 mph - N/A   Overcast
7:52 PM 55.0 °F - 28.9 °F 37% 29.95 in 10.0 mi WNW 4.6 mph - N/A   Overcast
8:52 PM 50.0 °F - 33.1 °F 52% 29.98 in 10.0 mi Calm Calm - N/A   Mostly Cloudy
9:52 PM 45.0 °F - 35.1 °F 68% 30.00 in 10.0 mi Calm Calm - N/A   Mostly Cloudy
10:52 PM 46.0 °F - 33.1 °F 61% 30.01 in 10.0 mi Calm Calm - N/A   Overcast
11:52 PM 39.0 °F - 36.0 °F 89% 30.02 in 10.0 mi Calm Calm - N/A   Mostly Cloudy